STARLINK-2487, 48144

Orbit data source: Space-Track

STARLINK-2487, 48144 is a payload satellite owned by SpaceX/Seattle (US) in LEO that was launched on Wed, 07 Apr 2021 UTC via an FALCON 9 launch vehicle from the Air Force Eastern Test Range (AFETR). Payload-class satellites include a variety of spacecraft equipped with specific instruments for various scientific and technological missions. These include communications satellites like Starlink; space stations such as the ISS; scientific satellites like the Hubble; Earth observation satellites from companies like Planet Labs, Umbra, and HawkEye 360; GPS; miniature CubeSats for education and research; and military/defense satellites.

Loading next visibility...
Identifier
48144, 2021-027BE
Orbit
LEO
Country
Flag of USUS
Related business
Manufacturer
SpaceX/Seattle
Mission
Operational Commercial Communications
Bus & Motor
STARLINK, Unknown motor
Mass
260 kg wet, ~248 kg dry
Launch date (UTC)
2021-04-07 (5 years ago)
Launch vehicle
FALCON 9
Launch site
Air Force Eastern Test Range (AFETR)
Object type
Payload
Rocket body
Debris
Shape & HBR
Box + 1 Pan, 10.1 m
Radar Cross Section
13.562 m², Large (>1 m²)

Expand to show TLE details & history
Last TLE update: 2 days ago

TLE from 2 days ago
0 STARLINK-2487
1 48144U 21027BE  26171.01092154  .00001081  00000-0  46576-4 0  9994
2 48144  53.1607  36.4850 0001201  73.5380 286.5753 15.31702842288356
Epoch: 2026-06-20T00:15Z
TLE epoch observation values (Epoch: 2026-06-20T00:15:43.621Z)
Latitude
-0.00003°
Longitude
124.32155°
Altitude
471.397 km
Speed
7.632 km/s
True Right ascension
02h 25m 56s
True Declination
0° 00' 00"
Sunlit
Object was in daylight at epoch
Visualization orbit readout
Latitude
Unknown
Longitude
Unknown
Altitude
Unknown
Speed
Unknown
Apparent Right ascension
Unknown
Apparent Declination
Unknown
Sunlit
N/A
Visualization observer readout
Local Sidereal Time
21:29:28
Azimuth
Unknown
Elevation
Unknown
Doppler factor
Unknown
Orbital elements
Apogee altitude
471.811 km
Perigee altitude
470.165 km
Semi-major axis
6,849.125 km
Eccentricity
0.00012
Inclination
53.1607°
RAAN
36.485°
Arg. of periapsis
73.538°
True anomaly
286.56211°
Mean anomaly
286.5753°
Eccentric anomaly
286.5687°
Mean motion
3.82905 °/min
Orbital period
94.02 mins
BSTAR
0.000046576
Loading maneuver chart data...
Computing Atmospheric mass density...
Loading historical data...
Loading historical data...
Loading historical data...
Loading historical data...
Loading historical data...
Loading historical data...
Loading historical data...

Documentation

Showing up to 5 results
|